Wind_Speed
60 60 59 58 59 59 59 59 59 57 56 56 56 56 56 56 56 56 55 55 54 53 53 53 52 52 52 52 51 51 49 48 47 46 44 43 42 42
60 60 60 59 59 59 60 60 60 59 58 56 57 57 57 57 57 57 57 56 55 55 54 54 54 53 52 53 53 52 51 50 49 47 46 45 44 43
59 60 61 60 59 59 60 60 60 60 59 57 58 58 58 58 58 58 58 57 57 56 56 55 55 54 54 53 53 53 52 52 51 49 48 47 46 44
58 58 59 60 60 59 59 60 60 61 60 59 58 58 58 58 58 59 59 59 58 58 57 57 56 56 55 54 54 54 54 54 53 51 50 50 49 47
56 57 58 58 59 60 59 60 60 60 60 59 58 58 58 58 58 58 58 59 58 58 58 57 57 57 56 56 55 55 55 54 53 53 52 51 51 50
55 56 57 57 58 59 59 60 60 59 59 59 59 59 59 59 59 58 58 59 59 58 58 57 57 57 57 57 56 56 55 55 55 54 53 53 53 52
54 54 56 56 57 58 58 58 59 59 58 58 58 58 57 58 58 58 58 58 58 58 58 57 58 58 58 57 56 55 55 56 56 55 55 55 54 54
52 53 54 53 54 56 57 57 57 57 57 57 57 57 56 56 56 57 57 58 57 57 58 57 57 57 56 57 56 56 56 56 56 56 56 56 56 55
50 50 51 51 51 52 54 54 55 55 56 56 56 55 54 54 54 55 55 56 56 55 56 57 57 56 56 56 56 55 55 55 56 56 56 56 56 56
49 51 50 50 50 50 50 51 52 53 54 55 54 53 53 53 53 53 54 54 54 54 55 56 57 56 56 56 56 55 55 55 55 55 56 56 56 56
47 48 49 48 48 49 49 48 49 50 51 52 51 52 52 53 53 52 52 52 53 53 54 55 55 55 56 56 55 55 54 55 55 55 56 56 56 56
45 46 47 47 47 47 47 47 46 47 48 48 49 50 50 50 50 51 51 51 52 51 52 53 53 54 55 55 54 55 55 55 55 55 56 56 55 55
43 44 45 45 45 45 45 45 45 45 45 46 47 47 47 47 47 48 49 49 49 49 50 52 53 53 54 53 53 54 54 54 54 54 54 55 55 55
40 41 42 43 43 42 42 42 43 44 44 44 45 45 45 45 45 46 47 47 47 47 48 49 51 51 52 52 52 52 53 53 52 52 53 53 54 54
38 39 40 40 40 40 39 40 41 42 42 42 43 43 44 45 45 45 46 46 45 46 46 47 48 49 50 50 50 50 51 51 51 51 51 51 51 51
37 38 39 39 39 38 39 38 38 39 40 40 41 42 43 44 44 44 45 45 45 45 46 46 47 47 47 48 48 48 49 49 49 49 49 49 49 50
35 35 36 37 37 37 38 38 38 38 38 39 39 40 41 42 42 42 43 43 43 44 44 46 46 46 45 45 46 46 47 47 47 48 48 48 49 49
33 34 35 36 36 36 37 38 39 38 38 39 39 39 40 40 40 41 41 41 41 42 43 44 45 45 45 44 44 44 45 46 46 46 46 46 46 47
31 31 32 33 34 35 36 37 38 38 38 38 39 39 39 40 40 40 40 41 41 41 41 43 44 44 44 43 42 43 43 44 45 45 45 45 45 45
29 29 30 31 32 33 34 35 36 37 37 37 37 38 38 38 39 39 40 40 39 40 40 41 41 42 42 42 41 41 42 43 43 43 44 44 43 44
28 28 28 29 30 31 31 32 33 34 35 36 36 36 36 36 36 36 38 39 39 38 38 39 39 40 40 41 40 40 41 42 42 41 42 42 43 42
27 27 27 27 28 29 29 30 31 31 32 33 34 34 34 34 35 35 36 36 36 37 38 39 39 38 39 39 39 39 40 40 40 40 40 41 41 41
26 27 26 27 27 27 28 28 29 29 30 31 32 33 34 34 34 35 35 35 35 35 36 37 38 38 38 38 38 38 38 38 39 39 39 39 39 39
Wind_Direction
259 259 258 257 256 255 255 254 254 252 251 251 251 252 252 252 252 251 251 251 250 251 251 251 252 252 252 252 252 253 254 256 256 257 259 260 262 263
259 258 259 258 257 256 255 254 254 254 251 250 250 251 251 252 252 252 252 252 251 250 250 251 251 251 251 252 252 252 253 255 255 257 258 259 261 262
258 258 258 257 257 256 255 255 254 254 253 250 250 250 251 251 252 252 252 252 252 251 251 250 250 250 251 252 252 252 252 253 254 255 256 258 260 261
258 258 257 257 256 256 255 255 254 254 253 251 250 250 251 251 252 252 252 252 252 252 251 251 250 250 251 251 252 253 253 252 253 254 256 257 258 259
256 256 256 256 256 255 255 254 253 253 253 252 251 251 251 251 252 252 252 252 252 251 251 251 250 250 251 251 252 253 253 252 252 253 255 256 257 259
255 255 256 255 255 255 254 254 253 253 253 252 252 251 251 251 252 252 251 251 251 251 251 251 251 250 250 251 252 252 252 252 252 253 254 256 258 259
255 256 256 255 254 254 255 254 253 253 253 253 252 252 251 251 252 252 251 250 250 251 251 251 250 249 250 250 251 251 252 253 253 253 255 256 258 259
256 255 255 255 253 254 254 253 252 252 252 253 252 252 251 251 250 250 250 249 249 250 250 249 249 249 249 250 250 251 253 254 254 254 255 256 257 259
257 255 255 255 254 253 253 252 252 252 252 252 252 251 251 249 249 248 248 248 248 248 249 248 248 249 248 248 250 251 252 254 255 255 255 256 258 259
258 256 256 256 254 253 254 253 253 252 252 252 251 251 250 247 248 247 248 248 248 248 248 248 247 248 248 248 249 250 252 253 254 255 256 256 257 259
259 258 257 255 254 254 254 253 253 252 251 251 250 250 249 247 247 247 247 248 248 248 247 247 247 247 248 248 249 251 253 254 255 256 256 256 256 258
258 257 256 255 254 253 254 253 253 251 250 250 249 249 249 248 247 246 247 248 248 248 248 248 247 247 247 248 250 251 253 254 255 256 257 257 257 258
257 256 255 254 254 253 254 253 252 251 249 249 248 247 247 247 247 247 248 248 248 248 248 248 248 248 248 248 249 251 253 254 254 255 256 257 258 259
258 256 254 254 254 253 252 252 251 250 249 249 248 246 246 246 246 247 247 247 248 248 248 248 248 248 249 249 249 251 252 253 254 255 256 257 258 259
257 255 254 254 253 252 251 251 250 250 249 248 248 247 245 245 245 246 246 246 247 247 247 248 248 248 249 249 250 251 251 252 252 254 255 256 258 259
255 254 253 253 252 251 250 250 250 249 248 248 248 247 246 245 245 246 246 246 247 247 247 247 247 248 248 249 250 251 251 252 252 253 255 256 257 258
254 252 250 250 250 249 248 249 249 248 247 247 247 247 246 246 246 246 246 246 247 247 246 246 246 248 250 250 250 251 251 252 252 253 255 256 257 259
254 252 250 249 248 247 246 248 247 247 246 246 246 245 245 244 244 245 246 246 246 246 246 245 246 247 248 249 251 251 251 252 253 254 255 256 257 258
254 251 249 249 247 246 246 246 246 245 245 245 245 245 245 244 244 244 244 245 246 245 245 246 247 247 249 249 250 251 252 252 254 254 255 256 257 258
252 250 249 248 247 246 245 245 245 244 244 244 244 244 244 244 244 244 244 244 245 245 245 246 247 247 248 248 249 250 251 253 253 254 255 256 257 258
251 250 250 250 248 246 245 244 243 243 242 241 241 242 242 243 243 243 242 242 242 243 243 244 245 246 248 248 248 249 251 252 252 254 255 256 257 258
251 250 251 250 248 247 246 244 242 241 240 240 240 240 240 241 241 241 241 241 241 241 242 243 244 246 247 247 248 250 252 252 253 254 256 256 257 259
250 250 249 248 247 246 244 242 240 239 239 239 239 237 237 238 240 240 239 239 239 239 241 242 243 245 247 247 249 250 251 251 253 256 257 258 259 261
Height
5615 5617 5619 5622 5624 5626 5629 5632 5636 5640 5647 5650 5652 5655 5657 5661 5664 5667 5671 5674 5678 5682 5685 5688 5691 5694 5697 5700 5703 5706 5709 5711 5713 5716 5718 5719 5721 5722
5598 5600 5603 5605 5607 5609 5612 5615 5618 5622 5628 5635 5637 5639 5642 5645 5648 5652 5655 5659 5663 5666 5670 5674 5677 5680 5683 5687 5690 5692 5696 5698 5701 5703 5705 5707 5709 5710
5581 5583 5586 5588 5590 5593 5595 5598 5601 5605 5610 5617 5620 5623 5626 5629 5632 5636 5639 5643 5647 5651 5655 5659 5662 5666 5669 5673 5676 5679 5682 5685 5688 5691 5693 5695 5697 5699
5564 5566 5568 5570 5573 5575 5578 5581 5584 5588 5592 5598 5603 5606 5610 5612 5616 5619 5623 5627 5631 5635 5639 5643 5647 5651 5654 5658 5661 5665 5668 5671 5675 5678 5681 5683 5685 5686
5546 5549 5551 5553 5556 5558 5561 5564 5567 5571 5574 5579 5585 5589 5593 5596 5599 5603 5607 5610 5615 5619 5622 5626 5631 5635 5639 5643 5646 5650 5654 5658 5661 5664 5666 5669 5671 5673
5529 5531 5534 5536 5539 5541 5544 5547 5550 5554 5557 5561 5567 5572 5576 5579 5582 5587 5591 5594 5598 5602 5606 5610 5615 5619 5624 5628 5632 5636 5639 5642 5646 5649 5652 5655 5657 5660
5512 5515 5517 5519 5522 5524 5527 5530 5533 5537 5540 5544 5549 5554 5559 5563 5566 5570 5574 5578 5582 5586 5590 5595 5599 5604 5608 5612 5616 5620 5623 5627 5631 5634 5638 5641 5643 5646
5496 5499 5501 5503 5505 5508 5510 5513 5517 5520 5524 5528 5533 5537 5542 5546 5549 5553 5557 5561 5567 5572 5574 5578 5582 5587 5592 5596 5600 5604 5608 5611 5615 5619 5622 5625 5628 5630
5481 5483 5485 5487 5489 5491 5494 5497 5501 5504 5508 5512 5516 5521 5525 5530 5533 5537 5540 5544 5550 5555 5557 5563 5567 5572 5577 5581 5585 5589 5593 5596 5600 5603 5607 5610 5613 5615
5466 5467 5469 5472 5474 5476 5479 5482 5485 5489 5493 5496 5501 5506 5509 5512 5517 5521 5525 5529 5534 5539 5542 5547 5551 5556 5561 5565 5569 5573 5577 5581 5585 5588 5591 5594 5597 5600
5452 5453 5455 5457 5460 5462 5464 5468 5471 5474 5477 5481 5485 5489 5493 5497 5501 5505 5510 5514 5519 5524 5527 5532 5537 5541 5546 5550 5554 5558 5562 5566 5569 5572 5575 5578 5581 5584
5439 5440 5441 5443 5445 5447 5450 5453 5457 5460 5463 5466 5470 5474 5478 5482 5486 5491 5496 5500 5504 5509 5513 5517 5522 5525 5530 5535 5539 5543 5547 5550 5554 5557 5560 5563 5566 5568
5425 5427 5428 5430 5432 5434 5437 5440 5443 5446 5449 5453 5456 5460 5464 5468 5473 5477 5482 5486 5490 5495 5499 5502 5507 5511 5515 5521 5525 5528 5532 5535 5538 5541 5544 5547 5550 5553
5413 5414 5416 5418 5420 5422 5425 5428 5430 5433 5436 5440 5444 5448 5452 5456 5460 5464 5468 5472 5476 5481 5484 5488 5493 5497 5501 5506 5511 5514 5517 5520 5523 5526 5529 5532 5535 5537
5401 5403 5404 5406 5408 5411 5413 5416 5418 5421 5425 5428 5432 5436 5440 5443 5447 5451 5455 5459 5463 5467 5471 5474 5479 5483 5487 5492 5496 5500 5503 5506 5509 5512 5515 5518 5520 5523
5390 5391 5393 5395 5397 5400 5402 5405 5407 5410 5413 5417 5420 5424 5427 5431 5435 5439 5443 5446 5450 5454 5458 5461 5465 5469 5474 5478 5482 5486 5489 5492 5496 5499 5501 5504 5506 5508
5379 5381 5383 5384 5387 5389 5392 5394 5397 5400 5403 5406 5409 5413 5416 5419 5423 5427 5430 5434 5438 5442 5445 5449 5453 5456 5460 5465 5469 5473 5476 5479 5482 5486 5488 5491 5493 5495
5369 5371 5373 5375 5377 5379 5382 5385 5387 5390 5393 5396 5399 5402 5405 5408 5412 5416 5419 5422 5426 5430 5433 5437 5441 5444 5448 5452 5457 5460 5463 5466 5469 5472 5474 5477 5480 5481
5360 5361 5363 5365 5367 5370 5372 5375 5378 5380 5383 5385 5388 5391 5394 5397 5401 5404 5408 5411 5415 5418 5422 5426 5429 5433 5437 5441 5445 5447 5451 5454 5457 5459 5462 5464 5466 5469
5351 5352 5354 5356 5358 5360 5362 5365 5368 5370 5373 5376 5378 5381 5384 5387 5390 5394 5397 5401 5404 5408 5411 5415 5418 5422 5426 5430 5434 5437 5439 5442 5445 5447 5450 5452 5454 5456
5342 5344 5345 5347 5349 5350 5353 5355 5358 5361 5363 5366 5369 5372 5374 5377 5380 5384 5387 5391 5394 5398 5401 5405 5408 5411 5414 5418 5422 5426 5428 5430 5433 5435 5438 5440 5442 5444
5334 5335 5337 5338 5340 5342 5344 5346 5349 5351 5354 5357 5360 5363 5366 5369 5372 5375 5378 5381 5385 5388 5391 5394 5397 5400 5404 5408 5411 5414 5417 5419 5422 5424 5426 5428 5430 5432
5326 5327 5329 5330 5332 5334 5336 5338 5340 5343 5346 5348 5351 5354 5357 5360 5363 5366 5369 5372 5375 5378 5382 5385 5388 5391 5394 5397 5401 5404 5406 5408 5411 5413 5415 5417 5419 5420